Location: Brunsen
(51.8651°N, 9.8610°E)
Time: 21:54:35
(UTC+00:00)

CZ-2C R/B - Pass Details

Date: 15 August 2024
Orbit: 782 x 869 km, 98.3° (Epoch: 07 September)

Event Time Altitude Azimuth Distance (km) Brightness Sun altitude
Exits shadow 22:54:21 - 96° (E) 3,077 5.5 -24.1°
Reaches altitude 10° 22:56:54 10° 77° (ENE) 2,453 5.2 -24.2°
Maximum altitude 22:59:27 14° 49° (NE) 2,196 5.2 -24.2°
Drops below altitude 10° 23:01:58 10° 21° (NNE) 2,431 5.9 -24.3°
Sets 23:05:30 0° 356° (N) 3,349 7.2 -24.3°
